| time (UTC) | temp C | wind direction | speed KPH | gust KPH | rain 1hr cm | rain 24hr cm | rain mn cm | humidity % | barometer mb |
| 20260504160328 | 20 | 236 | 8.0 | 14.5 | 0.00 | 0.00 | 0.00 | 37 | 1014.2 |
| 20260504150320 | 20 | 223 | 6.4 | 12.9 | 0.00 | 0.00 | 0.00 | 49 | 1014.7 |
| 20260504140338 | 18 | 157 | 6.4 | 11.3 | 0.00 | 0.00 | 0.00 | 52 | 1014.7 |
| 20260504130324 | 16 | 360 | 9.7 | 20.9 | 0.00 | 0.00 | 0.00 | 61 | 1015.3 |
| 20260504110338 | 12 | 205 | 8.0 | 12.9 | 0.00 | 0.00 | 0.00 | 83 | 1016.1 |
| 20260504100322 | 12 | 188 | 6.4 | 16.1 | 0.00 | 0.00 | 0.00 | 82 | 1015.8 |
| 20260504080331 | 11 | 202 | 6.4 | 14.5 | 0.00 | 0.00 | 0.00 | 85 | 1016.3 |
| 20260504070327 | 11 | 181 | 8.0 | 16.1 | 0.00 | 0.00 | 0.00 | 83 | 1016.4 |
| 20260504050334 | 7 | 189 | 6.4 | 8.0 | 0.00 | 0.00 | 0.00 | 80 | 1016.5 |
| 20260504043343 | 7 | 182 | 4.8 | 9.7 | 0.00 | 0.00 | 0.00 | 80 | 1016.4 |
| 20260504040325 | 7 | 193 | 4.8 | 8.0 | 0.00 | 0.00 | 0.00 | 78 | 1016.2 |
| 20260504033324 | 7 | 159 | 1.6 | 3.2 | 0.00 | 0.00 | 0.00 | 76 | 1015.9 |
| 20260504030338 | 7 | 132 | 1.6 | 4.8 | 0.00 | 0.00 | 0.00 | 75 | 1015.9 |
| 20260504023319 | 7 | 217 | 0.0 | 3.2 | 0.00 | 0.00 | 0.00 | 73 | 1015.8 |
| 20260504020343 | 7 | 217 | 0.0 | 4.8 | 0.00 | 0.00 | 0.00 | 71 | 1015.8 |
| 20260504013323 | 8 | 217 | 1.6 | 3.2 | 0.00 | 0.00 | 0.00 | 68 | 1015.5 |
| 20260504010357 | 8 | 217 | 0.0 | 0.0 | 0.00 | 0.00 | 0.00 | 67 | 1015.3 |
| 20260504003343 | 10 | 217 | 0.0 | 0.0 | 0.00 | 0.00 | 0.00 | 64 | 1015.1 |
| 20260504000327 | 12 | 217 | 3.2 | 4.8 | 0.00 | 0.00 | 0.00 | 55 | 1014.7 |
| 20260503233357 | 15 | 215 | 0.0 | 4.8 | 0.00 | 0.00 | 0.00 | 45 | 1014.4 |
| 20260503230320 | 16 | 282 | 4.8 | 9.7 | 0.00 | 0.00 | 0.00 | 40 | 1014.5 |
| 20260503223325 | 16 | 312 | 3.2 | 8.0 | 0.00 | 0.00 | 0.00 | 40 | 1014.4 |
| 20260503220332 | 16 | 265 | 4.8 | 14.5 | 0.00 | 0.00 | 0.00 | 39 | 1014.5 |
| 20260503213340 | 16 | 328 | 6.4 | 14.5 | 0.00 | 0.00 | 0.00 | 41 | 1014.5 |
| 20260503210322 | 15 | 292 | 9.7 | 17.7 | 0.00 | 0.00 | 0.00 | 41 | 1014.5 |
| 20260503203327 | 15 | 340 | 9.7 | 19.3 | 0.00 | 0.00 | 0.00 | 38 | 1014.6 |
| 20260503200334 | 15 | 360 | 6.4 | 17.7 | 0.00 | 0.00 | 0.00 | 42 | 1015.1 |
| 20260503193343 | 14 | 313 | 11.3 | 22.5 | 0.00 | 0.00 | 0.00 | 39 | 1015.3 |
| 20260503190330 | 14 | 360 | 11.3 | 22.5 | 0.00 | 0.00 | 0.00 | 40 | 1015.6 |
| 20260503183353 | 13 | 360 | 6.4 | 16.1 | 0.00 | 0.00 | 0.00 | 42 | 1015.8 |
| 20260503180328 | 13 | 360 | 11.3 | 27.4 | 0.00 | 0.00 | 0.00 | 40 | 1016.1 |
| 20260503173335 | 12 | 360 | 9.7 | 22.5 | 0.00 | 0.00 | 0.00 | 42 | 1016.2 |
| 20260503170340 | 12 | 360 | 6.4 | 17.7 | 0.00 | 0.00 | 0.00 | 45 | 1016.3 |